Buffalo, NY

1:08 PM EST on December 16, 2017 (GMT -0500)
Buffalo Niagara International

Weather History for KBUF - February, 2013

Change the Weather History Date:

Tuesday, February 26, 2013

  Actual Average Record
Temperature  
Mean Temperature 34 °F 28 °F  
Max Temperature 42 °F 36 °F 71 °F (2000)
Min Temperature 26 °F 21 °F -5 °F (1963)
Degree Days  
Heating Degree Days 31 37  
Month to date heating degree days 1021 1012  
Since 1 July heating degree days 4259 4671  
Cooling Degree Days 0 0  
Month to date cooling degree days 0 0  
Year to date cooling degree days 0 0  
Moisture  
Dew Point 26 °F    
Average Humidity 69    
Maximum Humidity 89    
Minimum Humidity 49    
Precipitation  
Precipitation 0.89 in 0.09 in 0.89 in (2013)
Month to date precipitation 2.43 2.30  
Year to date precipitation 4.93 5.48  
Snow  
Snow T in 0.60 in 6.00 in (1921)
Month to date snowfall 19.4 16.2  
Since 1 July snowfall 47.6 77.7  
Snow Depth 0.00 in    
Sea Level Pressure  
Sea Level Pressure 30.00 in    
Wind  
Wind Speed 13 mph (East)    
Max Wind Speed 26 mph    
Max Gust Speed 35 mph    
Visibility 8 miles    
Events Rain , Snow    
T = Trace of Precipitation, MM = Missing Value Source: NWS Daily Summary

Daily Weather History Graph

Daily Weather History Graph

Search for Another Location

Airport or City:

Trip Planner

Search our weather history database for the weather conditions in past years. The results will help you decide how hot, cold, wet, or windy it might be!

Date:

Astronomy

Feb. 26, 2013 Rise Set
Actual Time 6:55 AM EST 6:00 PM EST
Civil Twilight 6:26 AM EST 6:29 PM EST
Nautical Twilight 5:53 AM EST 7:02 PM EST
Astronomical Twilight 5:21 AM EST 7:35 PM EST
Moon 7:18 PM EST (2/26) 6:54 AM EST (2/26)
Length of Visible Light 12h 02m
Length of Day
11h 05m
Full, 99% of the Moon is Illuminated
Feb 26
Full
Mar 4
Last Quarter
Mar 11
New
Mar 19
First Quarter
Mar 27
Full

Hourly Weather History & Observations

Time (EST) Temp. Windchill Dew Point Humidity Pressure Visibility Wind Dir Wind Speed Gust Speed Precip Events Conditions
12:54 AM 27.0 °F 23.0 °F 21.0 °F 78% 30.23 in 10.0 mi East 3.5 mph - N/A   Clear
1:54 AM 26.1 °F 18.4 °F 19.9 °F 78% 30.22 in 10.0 mi ENE 6.9 mph - N/A   Clear
2:54 AM 28.0 °F 19.3 °F 21.9 °F 78% 30.19 in 10.0 mi ENE 9.2 mph - N/A   Clear
3:54 AM 28.0 °F 20.0 °F 21.9 °F 78% 30.18 in 10.0 mi ENE 8.1 mph - N/A   Clear
4:54 AM 28.0 °F 20.0 °F 21.0 °F 75% 30.18 in 10.0 mi ENE 8.1 mph - N/A   Clear
5:54 AM 27.0 °F 18.7 °F 21.0 °F 78% 30.17 in 10.0 mi ENE 8.1 mph - N/A   Partly Cloudy
6:54 AM 27.0 °F 18.0 °F 21.0 °F 78% 30.15 in 10.0 mi ENE 9.2 mph - N/A   Scattered Clouds
7:54 AM 28.9 °F 20.4 °F 21.0 °F 72% 30.15 in 10.0 mi East 9.2 mph - N/A   Mostly Cloudy
8:54 AM 32.0 °F 23.6 °F 23.0 °F 69% 30.15 in 10.0 mi East 10.4 mph - N/A   Mostly Cloudy
9:54 AM 37.0 °F 29.3 °F 23.0 °F 57% 30.12 in 10.0 mi ESE 11.5 mph 21.9 mph N/A   Mostly Cloudy
10:54 AM 39.0 °F 29.3 °F 24.1 °F 55% 30.09 in 10.0 mi East 19.6 mph 25.3 mph N/A   Mostly Cloudy
11:54 AM 42.1 °F 34.5 °F 24.1 °F 49% 30.05 in 10.0 mi East 15.0 mph - N/A   Overcast
12:54 PM 42.1 °F 33.3 °F 24.1 °F 49% 30.02 in 10.0 mi East 19.6 mph - N/A   Overcast
1:54 PM 42.1 °F 34.2 °F 25.0 °F 51% 29.97 in 10.0 mi East 16.1 mph 25.3 mph N/A   Overcast
2:54 PM 42.1 °F 33.9 °F 25.0 °F 51% 29.96 in 10.0 mi ESE 17.3 mph - N/A   Overcast
3:54 PM 41.0 °F 33.1 °F 26.1 °F 55% 29.92 in 10.0 mi East 15.0 mph 23.0 mph N/A   Overcast
4:54 PM 41.0 °F 32.5 °F 25.0 °F 53% 29.90 in 10.0 mi East 17.3 mph - N/A   Overcast
5:54 PM 39.0 °F 29.9 °F 28.0 °F 65% 29.90 in 9.0 mi East 17.3 mph - 0.00 in Rain Light Rain
6:54 PM 37.0 °F 28.5 °F 30.0 °F 76% 29.86 in 7.0 mi ENE 13.8 mph - 0.06 in Rain Light Rain
7:54 PM 35.1 °F 25.2 °F 30.9 °F 85% 29.83 in 4.0 mi ENE 16.1 mph - 0.13 in Rain Heavy Rain
8:46 PM 35.6 °F 26.6 °F 32.0 °F 87% 29.83 in 3.0 mi East 13.8 mph - 0.19 in Rain , Snow Heavy Rain
8:54 PM 35.1 °F 27.9 °F 32.0 °F 89% 29.86 in 3.0 mi East 9.2 mph - 0.23 in Rain , Snow Heavy Rain
9:17 PM 35.6 °F 28.0 °F 32.0 °F 87% 29.83 in 2.5 mi East 10.4 mph - 0.08 in Rain , Snow Ice Pellets
9:39 PM 33.8 °F 25.3 °F 32.0 °F 93% 29.81 in 3.0 mi ENE 11.5 mph - 0.17 in Rain , Snow Heavy Rain
9:54 PM 34.0 °F 25.0 °F 32.0 °F 92% 29.82 in 3.0 mi ENE 12.7 mph - 0.24 in Rain , Snow Heavy Rain
10:31 PM 35.6 °F 25.5 °F 32.0 °F 87% 29.76 in 4.0 mi ENE 17.3 mph - 0.15 in Rain , Snow Heavy Rain
10:54 PM 35.1 °F 24.1 °F 32.0 °F 89% 29.76 in 5.0 mi ENE 19.6 mph - 0.20 in Rain , Snow Light Rain
11:54 PM 35.1 °F 23.3 °F 32.0 °F 89% 29.69 in 9.0 mi East 23.0 mph 34.5 mph 0.03 in Rain , Snow Light Rain